This is the latest recevied weather packets stored in our database for station/object NEWPRT. If no packets are shown the sender has not sent any weather packets the latest 10 day(s).
| Time | Temp. | Humidity | Pressure | Rain* | Wind** | Luminosity | Snow |
|---|---|---|---|---|---|---|---|
| 1778113721 | - | 75% | 1023.2 hPa | 0 mm | - | - | - |
| 1778113396 | - | 68% | 1023.2 hPa | 0 mm | - | - | - |
| 1778113073 | - | 69% | 1023.2 hPa | 0 mm | - | - | - |
| 1778112750 | - | 69% | 1023.3 hPa | 0 mm | - | - | - |
| 1778112427 | - | 70% | 1023.2 hPa | 0 mm | - | - | - |
| 1778112104 | - | 73% | 1023.3 hPa | 0 mm | - | - | - |
| 1778111781 | - | 73% | 1023.3 hPa | 0 mm | - | - | - |
| 1778111458 | - | 73% | 1023.3 hPa | 0 mm | - | - | - |
| 1778111135 | - | 74% | 1023.3 hPa | 0 mm | - | - | - |
| 1778110812 | - | 74% | 1023.3 hPa | 0 mm | - | - | - |
| 1778110489 | - | 75% | 1023.4 hPa | 0 mm | - | - | - |
| 1778110168 | - | 75% | 1023.4 hPa | 0 mm | - | - | - |
| 1778109843 | - | 75% | 1023.3 hPa | 0 mm | - | - | - |
| 1778109519 | - | 74% | 1023.4 hPa | 0 mm | - | - | - |
| 1778109197 | - | 73% | 1023.4 hPa | 0 mm | - | - | - |
| 1778108874 | - | 70% | 1023.6 hPa | 0 mm | - | - | - |
| 1778108552 | - | 73% | 1023.8 hPa | 0 mm | - | - | - |
| 1778108227 | - | 69% | 1023.8 hPa | 0 mm | - | - | - |
| 1778107905 | - | 69% | 1024 hPa | 0 mm | - | - | - |
| 1778107581 | - | 65% | 1023.6 hPa | 0 mm | - | - | - |
| 1778107259 | - | 64% | 1023.8 hPa | 0 mm | - | - | - |
| 1778106935 | - | 65% | 1023.6 hPa | 0 mm | - | - | - |
| 1778106614 | - | 65% | 1023.8 hPa | 0 mm | - | - | - |
| 1778106289 | - | 65% | 1023.9 hPa | 0 mm | - | - | - |
| 1778105966 | - | 64% | 1024.1 hPa | 0 mm | - | - | - |
* Rain latest hour (hover to see other rain measurements)
** Current wind speed in m/s (hover to see current wind gust speed)